TimeEST,TemperatureF,Dew PointF,Humidity,Sea Level PressureIn,VisibilityMPH,Wind Direction,Wind SpeedMPH,Gust SpeedMPH,PrecipitationIn,Events,Conditions,WindDirDegrees,DateUTC
12:15 AM,32.0,26.2,79,30.27,10.0,Calm,Calm,-,N/A,,Clear,0,2013-02-07 05:15:00
12:35 AM,31.1,26.1,82,30.27,10.0,Calm,Calm,-,N/A,,Clear,0,2013-02-07 05:35:00
12:55 AM,32.0,26.6,80,30.26,10.0,NNE,3.5,-,N/A,,Clear,20,2013-02-07 05:55:00
1:15 AM,32.0,27.0,82,30.26,10.0,NNE,3.5,-,N/A,,Clear,20,2013-02-07 06:15:00
1:35 AM,33.8,28.0,79,30.26,10.0,NNE,3.5,-,N/A,,Clear,20,2013-02-07 06:35:00
1:55 AM,33.1,28.4,83,30.26,10.0,North,3.5,-,N/A,,Clear,10,2013-02-07 06:55:00
2:15 AM,33.1,28.6,84,30.26,10.0,North,5.8,-,N/A,,Clear,10,2013-02-07 07:15:00
2:35 AM,34.3,30.9,87,30.27,10.0,North,4.6,-,N/A,,Clear,10,2013-02-07 07:35:00
2:55 AM,34.5,30.9,87,30.27,10.0,North,4.6,-,N/A,,Clear,10,2013-02-07 07:55:00
3:15 AM,35.4,32.2,88,30.27,10.0,North,4.6,-,N/A,,Clear,10,2013-02-07 08:15:00
3:35 AM,34.3,32.0,91,30.26,10.0,NNE,4.6,-,N/A,,Clear,30,2013-02-07 08:35:00
3:55 AM,35.6,33.1,91,30.26,10.0,NNE,5.8,-,N/A,,Clear,30,2013-02-07 08:55:00
4:15 AM,33.4,31.8,94,30.26,10.0,NNE,4.6,-,N/A,,Clear,30,2013-02-07 09:15:00
4:35 AM,33.4,31.8,94,30.27,10.0,NNE,5.8,-,N/A,,Clear,30,2013-02-07 09:35:00
4:55 AM,35.6,33.4,92,30.27,10.0,NNE,3.5,-,N/A,,Clear,30,2013-02-07 09:55:00
5:15 AM,34.9,32.9,92,30.27,10.0,North,4.6,-,N/A,,Clear,10,2013-02-07 10:15:00
5:35 AM,35.8,34.0,93,30.28,7.0,North,3.5,-,N/A,,Clear,10,2013-02-07 10:35:00
5:55 AM,36.3,34.5,93,30.30,10.0,Calm,Calm,-,N/A,,Clear,0,2013-02-07 10:55:00
6:15 AM,35.8,34.0,93,30.30,7.0,NNE,4.6,-,N/A,,Clear,20,2013-02-07 11:15:00
6:55 AM,36.9,35.1,93,30.30,7.0,NNE,6.9,-,N/A,,Clear,30,2013-02-07 11:55:00
7:15 AM,37.4,35.2,92,30.30,7.0,NNE,6.9,-,N/A,,Clear,20,2013-02-07 12:15:00
7:35 AM,37.6,35.2,91,30.31,7.0,NNE,5.8,-,N/A,,Clear,20,2013-02-07 12:35:00
7:55 AM,37.8,35.2,91,30.31,7.0,NNE,8.1,-,N/A,,Clear,30,2013-02-07 12:55:00
8:15 AM,38.3,35.2,89,30.31,7.0,NNE,8.1,-,N/A,,Clear,30,2013-02-07 13:15:00
8:35 AM,38.5,35.4,89,30.32,7.0,NNE,8.1,-,N/A,,Clear,30,2013-02-07 13:35:00
8:55 AM,39.2,35.6,87,30.32,7.0,NNE,8.1,-,N/A,,Clear,30,2013-02-07 13:55:00
9:15 AM,39.2,35.4,86,30.31,7.0,NNE,6.9,-,N/A,,Clear,30,2013-02-07 14:15:00
9:35 AM,39.6,35.8,86,30.31,7.0,NNE,5.8,-,N/A,,Clear,30,2013-02-07 14:35:00
9:55 AM,40.6,36.5,85,30.31,7.0,North,8.1,-,N/A,,Clear,10,2013-02-07 14:55:00
10:15 AM,41.9,36.5,81,30.30,7.0,NNE,8.1,-,N/A,,Clear,30,2013-02-07 15:15:00
10:35 AM,42.6,36.7,79,30.30,7.0,NNE,6.9,-,N/A,,Clear,20,2013-02-07 15:35:00
10:55 AM,44.1,37.4,77,30.30,7.0,NE,5.8,-,N/A,,Clear,40,2013-02-07 15:55:00
11:35 AM,45.0,37.0,74,30.28,10.0,NNE,8.1,-,N/A,,Clear,30,2013-02-07 16:35:00
11:55 AM,45.5,37.0,72,30.27,10.0,NNE,5.8,-,N/A,,Clear,30,2013-02-07 16:55:00
12:15 PM,45.9,36.9,71,30.25,10.0,NNE,6.9,-,N/A,,Clear,20,2013-02-07 17:15:00
12:35 PM,46.0,36.7,70,30.25,10.0,NNE,8.1,-,N/A,,Clear,30,2013-02-07 17:35:00
12:55 PM,47.1,36.9,68,30.24,10.0,NNE,9.2,-,N/A,,Clear,20,2013-02-07 17:55:00
1:15 PM,48.0,37.0,66,30.23,10.0,NNE,6.9,-,N/A,,Clear,20,2013-02-07 18:15:00
1:35 PM,48.2,37.0,65,30.22,10.0,North,8.1,-,N/A,,Clear,10,2013-02-07 18:35:00
1:55 PM,48.6,37.2,65,30.21,10.0,NE,8.1,-,N/A,,Clear,40,2013-02-07 18:55:00
2:15 PM,48.6,37.2,65,30.20,10.0,NE,5.8,-,N/A,,Clear,40,2013-02-07 19:15:00
2:35 PM,48.9,37.4,64,30.19,10.0,NNE,8.1,-,N/A,,Scattered Clouds,30,2013-02-07 19:35:00
2:55 PM,48.2,37.4,66,30.19,10.0,North,8.1,-,N/A,,Overcast,10,2013-02-07 19:55:00
3:15 PM,48.2,37.0,65,30.19,10.0,NNE,9.2,-,N/A,,Overcast,20,2013-02-07 20:15:00
3:35 PM,48.2,37.4,66,30.19,10.0,NNE,10.4,-,N/A,,Overcast,20,2013-02-07 20:35:00
4:15 PM,47.3,36.9,67,30.18,10.0,North,8.1,-,N/A,,Overcast,10,2013-02-07 21:15:00
4:35 PM,46.9,36.7,68,30.17,10.0,North,9.2,-,N/A,,Overcast,360,2013-02-07 21:35:00
4:55 PM,46.8,36.7,68,30.16,10.0,North,10.4,-,N/A,,Overcast,360,2013-02-07 21:55:00
5:15 PM,46.6,36.7,68,30.16,10.0,NNE,9.2,-,N/A,,Overcast,20,2013-02-07 22:15:00
5:35 PM,46.8,37.0,69,30.15,10.0,NNE,8.1,-,N/A,,Overcast,30,2013-02-07 22:35:00
5:55 PM,46.8,37.4,70,30.14,10.0,NNE,8.1,-,N/A,,Overcast,20,2013-02-07 22:55:00
6:15 PM,46.8,37.6,70,30.14,10.0,NNE,8.1,-,N/A,,Overcast,20,2013-02-07 23:15:00
6:35 PM,46.4,38.3,73,30.13,10.0,NNE,8.1,-,N/A,,Light Drizzle,30,2013-02-07 23:35:00
6:55 PM,45.3,39.9,81,30.12,10.0,NNE,8.1,-,N/A,Rain,Rain,30,2013-02-07 23:55:00
7:15 PM,44.4,41.0,88,30.11,10.0,NNE,5.8,-,0.01,Rain,Light Rain,20,2013-02-08 00:15:00
7:35 PM,43.9,41.4,91,30.10,7.0,NNE,8.1,-,0.02,Rain,Light Rain,30,2013-02-08 00:35:00
7:55 PM,43.7,41.9,93,30.09,7.0,NNE,8.1,-,0.02,Rain,Light Rain,30,2013-02-08 00:55:00
8:35 PM,43.9,42.6,95,30.08,4.0,NNE,5.8,-,0.01,Rain,Light Rain,20,2013-02-08 01:35:00
8:55 PM,44.1,42.8,95,30.07,4.0,NE,4.6,-,0.02,Rain,Rain,40,2013-02-08 01:55:00
9:15 PM,44.6,43.2,95,30.07,5.0,NNE,8.1,-,N/A,Rain,Light Rain,30,2013-02-08 02:15:00
9:35 PM,44.6,43.3,95,30.06,5.0,NE,6.9,-,0.01,Rain,Rain,40,2013-02-08 02:35:00
9:55 PM,44.4,43.0,95,30.05,5.0,NNE,8.1,-,0.02,Rain,Light Rain,30,2013-02-08 02:55:00
10:15 PM,44.2,42.8,95,30.04,5.0,NE,5.8,-,N/A,Rain,Rain,40,2013-02-08 03:15:00
10:35 PM,44.2,43.0,95,30.03,5.0,NE,5.8,-,N/A,Rain,Light Rain,40,2013-02-08 03:35:00
10:55 PM,44.2,43.0,95,30.00,5.0,NNE,9.2,-,0.01,Rain,Rain,30,2013-02-08 03:55:00
11:15 PM,44.1,42.8,95,29.99,4.0,NNE,8.1,-,0.05,Rain,Heavy Rain,30,2013-02-08 04:15:00